Regional Weather Roundup
Issued by NWS Cleveland, OH

Home | Current Version | Previous Version | Graphics & Text | Print | Product List | Glossary On
Versions: 1 2 3 4 5 6 7 8 9 10 11 12 13 14 15 16 17 18 19 20 21 22 23 24 25 26 27 28 29 30 31 32 33 34 35 36 37 38 39 40 41 42 43 44 45 46 47 48 49 50
020
ASUS41 KCLE 272110
RWRCLE
OHIO REGIONAL WEATHER ROUNDUP
NATIONAL WEATHER SERVICE WILMINGTON, OH
500 PM EDT TUE JUN 27 2017

NOTE: "FAIR" INDICATES FEW OR NO CLOUDS BELOW 12,000 FEET WITH NO
SIGNIFICANT WEATHER AND/OR OBSTRUCTIONS TO VISIBILITY.

OHZ001>008-015>018-024>027-034-035-043-044-272200-
   NORTHWEST OHIO

CITY           SKY/WX    TMP DP  RH WIND       PRES   REMARKS
DEFIANCE       PTSUNNY   71  47  42 NW13      30.07F
FINDLAY        FAIR      72  45  37 W10G17    30.08F
TOLEDO EXPRESS CLOUDY    71  46  40 W12       30.06F
TOLEDO EXEC    CLOUDY    73  46  38 W10       30.07F
LIMA           PTSUNNY   68  45  43 W8        30.10F
$$

OHZ009>014-019>023-028>033-038-089-272200-
   NORTHEAST OHIO

CITY           SKY/WX    TMP DP  RH WIND       PRES   REMARKS
CLE-HOPKINS    FAIR      71  44  37 W16       30.09F
CLE-LAKEFRONT  FAIR      68  47  46 W14       30.07S
CUY CO. ARPT   MOSUNNY   68  48  49 W14       30.08F
LORAIN-ELYRIA  FAIR      69  39  33 NW10G18   30.09S
ASHTABULA      PTSUNNY   65  50  58 W9G20     30.07S
AKRON-CANTON   FAIR      69  41  36 W8        30.08F
WOOSTER        FAIR      68  43  40 W3        30.09S
MANSFIELD      PTSUNNY   68  43  40 W6        30.10S
YOUNGSTOWN     PTSUNNY   67  47  48 NW9       30.07F
$$

OHZ042-051>053-060>062-070>072-077>081-272200-
  SOUTHWEST OHIO

CITY           SKY/WX    TMP DP  RH WIND       PRES   REMARKS
CINC-COVINGTON PTSUNNY   74  50  42 N5        30.12S
CINC-LUNKEN    PTSUNNY   73  50  44 N7        30.12S
HAMILTON       FAIR      74  51  44 CALM      30.12F
DAYTON         FAIR      70  44  39 NW7       30.12F
WRIGHT-PAT AFB DRIZZLE   71  45  38 N3        30.11F
DAYTON GENERAL PTSUNNY   72  48  42 N6        30.11S
WILMINGTON     FAIR      69  48  47 CALM      30.11F
$$

OHZ036-037-039>041-045>050-054>059-063>069-073>076-082>088-272200-
  CENTRAL AND SOUTHEAST OHIO

CITY           SKY/WX    TMP DP  RH WIND       PRES   REMARKS
COLUMBUS       FAIR      73  49  42 NW12      30.09F
OSU AIRPORT    FAIR      70  47  43 W10       30.10S
BOLTON FIELD   MOSUNNY   72  48  43 NW7       30.11S
RICKENBACK AFB FAIR      71  47  41 W10       30.09S
NEWARK         FAIR      73  44  35 VRB7      30.09S
MARION         PTSUNNY   70  41  34 VRB7G16   30.11S
LANCASTER      FAIR      71  51  49 W8        30.10F
ZANESVILLE     FAIR      71  47  42 NW7       30.09F
NEW PHILLY     FAIR      71  44  37 NW8       30.09S
$$




USA.gov is the U.S. government's official web portal to all federal, state and local government web resources and services.